041  
ASUS41 KRLX 260110  
RWRRLX  
WEST VIRGINIA REGIONAL WEATHER ROUNDUP  
NATIONAL WEATHER SERVICE CHARLESTON WV  
900 PM EDT SUN JUN 25 2017  
 
NOTE: "FAIR" INDICATES FEW OR NO CLOUDS BELOW 12,000 FEET WITH NO  
SIGNIFICANT WEATHER AND/OR S TO VISIBILITY
.  
 
WVZ003-260200-  
NORTHERN PANHANDLE OF WEST VIRGINIA  
 
CITY SKY/WX TMP DP RH WIND PRES REMARKS
 
WHEELING MOCLDY 67 44 43 NW9 30.08R  

 
 
WVZ009-260200-  
NORTHWEST WEST VIRGINIA  
 
CITY SKY/WX TMP DP RH WIND PRES REMARKS
 
PARKERSBURG PTCLDY 68 51 54 SW5 30.11R  

 
 
WVZ006-260200-  
WESTERN WEST VIRGINIA  
 
CITY SKY/WX TMP DP RH WIND PRES REMARKS
 
HUNTINGTON PTCLDY 72 51 47 SW5 30.10R  

 
 
WVZ015-260200-  
WEST CENTRAL WEST VIRGINIA  
 
CITY SKY/WX TMP DP RH WIND PRES REMARKS
 
CHARLESTON PTCLDY 71 50 47 SW8 30.11R  

 
 
WVZ022-031-260200-  
NORTH CENTRAL WEST VIRGINIA  
 
CITY SKY/WX TMP DP RH WIND PRES REMARKS
 
CLARKSBURG MOCLDY 69 49 48 W8 30.10R  
MORGANTOWN MOCLDY 70 47 43 SW5 30.09R  

 
 
WVZ025-035-042-045-260200-  
SOUTHERN WEST VIRGINIA  
 
CITY SKY/WX TMP DP RH WIND PRES REMARKS
 
BECKLEY CLEAR 64 45 49 W3 30.19R  
LOGAN N/A 68 46 45 CALM 30.15S  
BLUEFIELD CLEAR 62 44 51 W5 30.21S  
LEWISBURG CLEAR 65 44 46 CALM 30.17S  

 
 
WVZ047-260200-  
NORTHERN MOUNTAINS OF WEST VIRGINIA  
 
CITY SKY/WX TMP DP RH WIND PRES REMARKS
 
ELKINS CLEAR 64 46 52 CALM 30.13S  

 
 
WVZ052-260200-  
EASTERN PANHANDLE OF WEST VIRGINIA  
 
CITY SKY/WX TMP DP RH WIND PRES REMARKS
 
MARTINSBURG CLEAR 70 46 42 W3 30.03S  
PETERSBURG CLEAR 67 52 58 W5 30.09R  

 
 
 
CLICK HERE TO GO TO PREVIOUS BULLETINS.

The Nexlab WV Page
The Nexlab OH Page
The Nexlab KY Page
The Nexlab VA Page Main Text Page